Drummond Island, MI

7:45 PM EDT on July 27, 2017 (GMT -0400)
Drummond Island

Weather History for KDRM - January, 2014

Change the Weather History Date:

Thursday, January 16, 2014

  Actual Average (KCIU) Record (KCIU)
Temperature  
Mean Temperature 22 °F -  
Max Temperature 26 °F 23 °F 38 °F (1983)
Min Temperature 19 °F 3 °F -22 °F (2004)
Degree Days  
Heating Degree Days 42    
Moisture  
Dew Point 18 °F    
Average Humidity 85    
Maximum Humidity 93    
Minimum Humidity 74    
Precipitation  
Precipitation 0.00 in - - ()
Sea Level Pressure  
Sea Level Pressure 29.62 in    
Wind  
Wind Speed 11 mph (SSE)    
Max Wind Speed 16 mph    
Max Gust Speed 25 mph    
Visibility 5 miles    
Events Snow    
Averages and records for this station are not official NWS values.
T = Trace of Precipitation, MM = Missing Value Source: NWS Daily Summary

Daily Weather History Graph

Daily Weather History Graph

Search for Another Location

Airport or City:

Trip Planner

Search our weather history database for the weather conditions in past years. The results will help you decide how hot, cold, wet, or windy it might be!

Date:

Astronomy

Jan. 16, 2014 Rise Set
Actual Time 8:12 AM EST 5:17 PM EST
Civil Twilight 7:38 AM EST 5:51 PM EST
Nautical Twilight 7:01 AM EST 6:28 PM EST
Astronomical Twilight 6:26 AM EST 7:03 PM EST
Moon 6:14 PM EST (1/16) 8:00 AM EST (1/16)
Length of Visible Light 10h 12m
Length of Day
9h 05m
Full, 100% of the Moon is Illuminated
Jan 16
Full
Jan 24
Last Quarter
Jan 30
New
Feb 6
First Quarter
Feb 14
Full

Hourly Weather History & Observations

Time (EST) Temp. Windchill Dew Point Humidity Pressure Visibility Wind Dir Wind Speed Gust Speed Precip Events Conditions
12:16 AM 19.4 °F 9.5 °F 13.1 °F 76% 29.74 in 10.0 mi South 8.1 mph - N/A   Overcast
12:37 AM 19.9 °F 7.9 °F 13.5 °F 76% 29.73 in 10.0 mi South 11.5 mph 18.4 mph N/A   Overcast
12:56 AM 19.8 °F 7.1 °F 12.7 °F 74% 29.73 in 10.0 mi South 12.7 mph 21.9 mph N/A   Overcast
1:17 AM 19.2 °F 5.8 °F 12.2 °F 74% 29.74 in 10.0 mi SSW 13.8 mph 21.9 mph N/A   Overcast
1:36 AM 19.0 °F 6.1 °F 12.0 °F 74% 29.73 in 10.0 mi SSW 12.7 mph 21.9 mph N/A   Overcast
1:56 AM 19.2 °F 5.8 °F 12.2 °F 74% 29.73 in 10.0 mi SSW 13.8 mph 18.4 mph N/A   Overcast
2:17 AM 19.2 °F 6.4 °F 12.4 °F 75% 29.73 in 10.0 mi SSW 12.7 mph 17.3 mph N/A   Overcast
2:36 AM 19.2 °F 6.4 °F 12.7 °F 76% 29.72 in 10.0 mi South 12.7 mph 18.4 mph N/A   Overcast
2:56 AM 19.4 °F 6.6 °F 12.6 °F 75% 29.71 in 10.0 mi SSW 12.7 mph 25.3 mph N/A   Overcast
3:17 AM 19.4 °F 9.5 °F 12.7 °F 75% 29.70 in 10.0 mi SSW 8.1 mph 19.6 mph N/A   Overcast
3:36 AM 19.9 °F 7.3 °F 13.1 °F 75% 29.70 in 10.0 mi SSW 12.7 mph 17.3 mph N/A   Overcast
3:57 AM 20.3 °F 10.6 °F 14.0 °F 77% 29.68 in 10.0 mi South 8.1 mph - N/A Snow Light Snow
4:16 AM 20.3 °F 9.0 °F 13.8 °F 76% 29.67 in 10.0 mi SSW 10.4 mph - N/A   Overcast
4:36 AM 20.7 °F 8.2 °F 14.0 °F 75% 29.66 in 10.0 mi South 12.7 mph 21.9 mph N/A   Overcast
4:57 AM 21.0 °F 8.1 °F 14.4 °F 75% 29.65 in 10.0 mi South 13.8 mph 19.6 mph N/A   Overcast
5:16 AM 21.2 °F 10.1 °F 15.3 °F 78% 29.64 in 7.0 mi South 10.4 mph - N/A Snow Light Snow
5:36 AM 21.2 °F 9.5 °F 16.3 °F 82% 29.64 in 3.0 mi South 11.5 mph 17.3 mph N/A Snow Light Snow
5:57 AM 21.0 °F 10.6 °F 17.6 °F 87% 29.63 in 1.8 mi South 9.2 mph 17.3 mph N/A Snow Light Snow
6:16 AM 21.0 °F 9.9 °F 18.3 °F 89% 29.62 in 1.5 mi South 10.4 mph 18.4 mph N/A Snow Light Snow
6:37 AM 20.8 °F 10.4 °F 18.3 °F 90% 29.62 in 1.2 mi South 9.2 mph 16.1 mph N/A Snow Light Snow
6:56 AM 21.0 °F 9.3 °F 18.7 °F 91% 29.62 in 1.0 mi South 11.5 mph 18.4 mph N/A Snow Snow
7:16 AM 21.2 °F 9.5 °F 19.0 °F 91% 29.61 in 1.5 mi SSE 11.5 mph 19.6 mph N/A Snow Light Snow
7:37 AM 21.0 °F 9.3 °F 18.3 °F 89% 29.61 in 1.8 mi SSE 11.5 mph 20.7 mph N/A Snow Light Snow
7:56 AM 21.0 °F 8.1 °F 18.0 °F 88% 29.61 in 1.8 mi SSE 13.8 mph 18.4 mph N/A Snow Light Snow
8:16 AM 20.7 °F 9.5 °F 17.8 °F 89% 29.60 in 0.5 mi SSE 10.4 mph 18.4 mph N/A Snow Snow
8:37 AM 20.3 °F 6.6 °F 18.0 °F 91% 29.60 in 0.5 mi SSE 15.0 mph 20.7 mph N/A Snow Snow
8:56 AM 20.1 °F 5.9 °F 17.6 °F 90% 29.60 in 0.5 mi South 16.1 mph 21.9 mph N/A Snow Snow
9:17 AM 20.1 °F 8.1 °F 17.6 °F 90% 29.60 in 0.8 mi SSE 11.5 mph 21.9 mph N/A Snow Light Snow
9:37 AM 20.1 °F 6.9 °F 17.1 °F 88% 29.61 in 1.0 mi SSE 13.8 mph 20.7 mph N/A Snow Light Snow
9:56 AM 20.3 °F 8.3 °F 16.7 °F 86% 29.61 in 2.0 mi South 11.5 mph 20.7 mph N/A Snow Light Snow
10:17 AM 20.7 °F 8.8 °F 16.5 °F 84% 29.60 in 2.5 mi South 11.5 mph 21.9 mph N/A Snow Light Snow
10:36 AM 20.8 °F 7.9 °F 16.7 °F 84% 29.60 in 2.0 mi South 13.8 mph 25.3 mph N/A Snow Light Snow
10:56 AM 21.2 °F 7.3 °F 16.7 °F 83% 29.60 in 2.5 mi South 16.1 mph 21.9 mph N/A Snow Light Snow
11:17 AM 21.7 °F 9.0 °F 17.2 °F 83% 29.60 in 3.0 mi South 13.8 mph 20.7 mph N/A Snow Light Snow
11:36 AM 21.7 °F 8.0 °F 17.6 °F 84% 29.59 in 1.5 mi South 16.1 mph 23.0 mph N/A Snow Light Snow
11:56 AM 21.7 °F 10.2 °F 18.5 °F 87% 29.59 in 0.8 mi SSE 11.5 mph 20.7 mph N/A Snow Light Snow
12:17 PM 21.7 °F 10.2 °F 18.7 °F 88% 29.58 in 0.5 mi SSE 11.5 mph 20.7 mph N/A Snow Light Snow
12:36 PM 22.1 °F 10.0 °F 19.0 °F 88% 29.58 in 0.8 mi South 12.7 mph 20.7 mph N/A Snow Light Snow
12:57 PM 22.1 °F 11.3 °F 18.7 °F 87% 29.57 in 1.0 mi South 10.4 mph 19.6 mph N/A Snow Light Snow
1:16 PM 22.1 °F 9.5 °F 18.7 °F 87% 29.57 in 1.2 mi South 13.8 mph 18.4 mph N/A Snow Light Snow
1:36 PM 22.6 °F 12.6 °F 18.5 °F 84% 29.57 in 1.8 mi South 9.2 mph 19.6 mph N/A Snow Light Snow
1:57 PM 22.6 °F 11.9 °F 19.0 °F 86% 29.56 in 2.0 mi South 10.4 mph 18.4 mph N/A Snow Light Snow
2:16 PM 23.0 °F 12.4 °F 19.4 °F 86% 29.56 in 1.5 mi SSE 10.4 mph 17.3 mph N/A Snow Light Snow
2:36 PM 23.0 °F 11.1 °F 19.4 °F 86% 29.56 in 2.5 mi SSE 12.7 mph 18.4 mph N/A Snow Light Snow
2:57 PM 23.2 °F 12.0 °F 19.6 °F 86% 29.56 in 2.5 mi SSE 11.5 mph 17.3 mph N/A Snow Light Snow
3:16 PM 23.0 °F 11.1 °F 19.4 °F 86% 29.57 in 3.0 mi SSE 12.7 mph - N/A Snow Light Snow
3:36 PM 23.0 °F 13.1 °F 19.6 °F 87% 29.57 in 1.2 mi SSE 9.2 mph 18.4 mph N/A Snow Light Snow
3:56 PM 23.4 °F 11.6 °F 19.8 °F 86% 29.57 in 3.0 mi SSE 12.7 mph 18.4 mph N/A Snow Light Snow
4:16 PM 23.4 °F 14.3 °F 20.3 °F 88% 29.57 in 2.5 mi SSE 8.1 mph - N/A Snow Light Snow
4:37 PM 23.5 °F 13.0 °F 20.3 °F 87% 29.58 in 1.5 mi SSE 10.4 mph - N/A Snow Light Snow
4:56 PM 23.5 °F 13.0 °F 20.8 °F 89% 29.58 in 1.8 mi SSE 10.4 mph - N/A Snow Light Snow
5:16 PM 23.5 °F 14.5 °F 21.2 °F 91% 29.58 in 1.2 mi SSE 8.1 mph - N/A Snow Light Snow
5:37 PM 23.7 °F 14.0 °F 21.2 °F 90% 29.58 in 1.8 mi SSE 9.2 mph - N/A Snow Light Snow
5:56 PM 23.9 °F 14.2 °F 21.7 °F 91% 29.58 in 3.0 mi SSE 9.2 mph - N/A Snow Light Snow
6:17 PM 23.9 °F 13.5 °F 22.1 °F 93% 29.59 in 2.5 mi SSE 10.4 mph - N/A Snow Light Snow
6:37 PM 24.3 °F 13.3 °F 21.9 °F 91% 29.59 in 3.0 mi SSE 11.5 mph 16.1 mph N/A Snow Light Snow
6:56 PM 24.3 °F 13.9 °F 22.1 °F 91% 29.59 in 3.0 mi SSE 10.4 mph 16.1 mph N/A Snow Light Snow
7:17 PM 24.3 °F 15.4 °F 21.7 °F 90% 29.60 in 5.0 mi SSE 8.1 mph - N/A Snow Light Snow
7:36 PM 24.4 °F 15.6 °F 21.7 °F 89% 29.60 in 7.0 mi SSE 8.1 mph - N/A   Overcast
7:57 PM 24.8 °F 16.1 °F 21.7 °F 88% 29.60 in 10.0 mi SSE 8.1 mph 16.1 mph N/A   Overcast
8:16 PM 24.8 °F 17.9 °F 21.7 °F 88% 29.61 in 10.0 mi SSE 5.8 mph - N/A   Overcast
8:36 PM 25.2 °F 19.5 °F 22.1 °F 88% 29.61 in 10.0 mi SSE 4.6 mph - N/A   Overcast
8:57 PM 25.3 °F 18.5 °F 22.1 °F 87% 29.61 in 10.0 mi SSE 5.8 mph - N/A   Overcast
9:16 PM 25.5 °F 18.7 °F 22.5 °F 88% 29.61 in 7.0 mi SSE 5.8 mph - N/A   Overcast
9:36 PM 25.5 °F 21.3 °F 22.6 °F 89% 29.61 in 7.0 mi SSE 3.5 mph - N/A   Overcast
9:57 PM 25.7 °F 21.5 °F 22.8 °F 89% 29.62 in 7.0 mi SE 3.5 mph - N/A   Overcast
10:16 PM 25.7 °F 21.5 °F 22.6 °F 88% 29.61 in 10.0 mi SSE 3.5 mph - N/A   Overcast
10:36 PM 25.7 °F 21.5 °F 22.8 °F 89% 29.61 in 10.0 mi SE 3.5 mph - N/A   Overcast
10:57 PM 25.9 °F 21.7 °F 23.0 °F 89% 29.61 in 10.0 mi SSE 3.5 mph - N/A   Overcast
11:16 PM 26.1 °F 21.9 °F 23.0 °F 88% 29.61 in 10.0 mi SSE 3.5 mph - N/A   Overcast
11:37 PM 26.1 °F 21.9 °F 23.0 °F 88% 29.61 in 7.0 mi SE 3.5 mph - N/A   Overcast
11:57 PM 26.2 °F - 23.0 °F 88% 29.61 in 7.0 mi Calm Calm - N/A   Overcast